Whyalla, Australia

12:40 AM ACST on April 20, 2018 (GMT +0930)
Whyalla

Weather History for YWHA - January, 2013

Change the Weather History Date:

Tuesday, January 1, 2013

  Actual Average Record
Temperature  
Mean Temperature 73 °F -  
Max Temperature 87 °F - - ()
Min Temperature 59 °F - - ()
Cooling Degree Days 8    
Growing Degree Days 23 (Base 50)    
Moisture  
Dew Point 56 °F    
Average Humidity 57    
Maximum Humidity 88    
Minimum Humidity 23    
Precipitation  
Precipitation 0.00 in - - ()
Sea Level Pressure  
Sea Level Pressure 29.96 in    
Wind  
Wind Speed 10 mph ()    
Max Wind Speed 26 mph    
Max Gust Speed -    
Visibility 6.2 miles    
Events      
T = Trace of Precipitation, MM = Missing Value Source: Averaged Metar Reports

Daily Weather History Graph

Daily Weather History Graph

Search for Another Location

Airport or City:

Astronomy

Jan. 01, 2013 Rise Set
Actual Time 6:14 AM ACDT 8:32 PM ACDT
Civil Twilight 5:46 AM ACDT 9:00 PM ACDT
Nautical Twilight 5:11 AM ACDT 9:35 PM ACDT
Astronomical Twilight 4:32 AM ACDT 10:13 PM ACDT
Moon 10:45 PM ACDT (1/1) 9:34 AM ACDT (1/1)
Length of Visible Light 15h 14m
Length of Day
14h 17m
Waning Gibbous, 88% of the Moon is Illuminated
Jan 1
Waning Gibbous
Jan 5
Last Quarter
Jan 12
New
Jan 19
First Quarter
Jan 27
Full

Hourly Weather History & Observations

Time (ACDT) Temp. Heat Index Dew Point Humidity Pressure Visibility Wind Dir Wind Speed Gust Speed Precip Events Conditions
12:30 AM 68.0 °F - 59.0 °F 73% 29.98 in 6.2 mi SSW 9.2 mph - N/A   Unknown
1:30 AM 66.2 °F - 59.0 °F 78% 29.95 in 6.2 mi SW 9.2 mph - N/A   Unknown
2:30 AM 66.2 °F - 60.8 °F 83% 29.95 in 6.2 mi SSW 10.4 mph - N/A   Unknown
3:30 AM 64.4 °F - 60.8 °F 88% 29.95 in 6.2 mi SW 8.1 mph - N/A   Unknown
4:30 AM 62.6 °F - 57.2 °F 82% 29.95 in 6.2 mi SW 8.1 mph - N/A   Unknown
5:30 AM 60.8 °F - 55.4 °F 82% 29.95 in 6.2 mi SW 8.1 mph - N/A   Unknown
6:30 AM 59.0 °F - 51.8 °F 77% 29.95 in 6.2 mi WSW 5.8 mph - N/A   Unknown
7:30 AM 66.2 °F - 53.6 °F 64% 29.95 in 6.2 mi West 2.3 mph - N/A   Unknown
8:30 AM 71.6 °F - 60.8 °F 69% 29.98 in 6.2 mi South 10.4 mph - N/A   Unknown
9:30 AM 75.2 °F - 60.8 °F 61% 29.98 in 6.2 mi South 9.2 mph - N/A   Unknown
10:30 AM 77.0 °F - 60.8 °F 57% 29.98 in 6.2 mi South 11.5 mph - N/A   Unknown
11:30 AM 80.6 °F - 51.8 °F 37% 29.98 in 6.2 mi South 12.7 mph - N/A   Unknown
12:30 PM 82.4 °F - 46.4 °F 28% 29.98 in 6.2 mi South 12.7 mph - N/A   Unknown
1:30 PM 86.0 °F - 44.6 °F 23% 29.95 in 6.2 mi South 15.0 mph - N/A   Unknown
2:30 PM 87.8 °F - 48.2 °F 25% 29.95 in 6.2 mi South 13.8 mph - N/A   Unknown
3:30 PM 84.2 °F 82.8 °F 53.6 °F 35% 29.95 in 6.2 mi South 16.1 mph - N/A   Unknown
4:30 PM 82.4 °F 81.4 °F 53.6 °F 37% 29.92 in 6.2 mi South 20.7 mph - N/A   Unknown
5:30 PM 84.2 °F - 46.4 °F 27% 29.92 in 6.2 mi South 25.3 mph - N/A   Unknown
6:30 PM 82.4 °F - 48.2 °F 30% 29.92 in 6.2 mi South 26.5 mph - N/A   Unknown
7:30 PM 78.8 °F - 59.0 °F 51% 29.95 in 6.2 mi South 21.9 mph - N/A   Unknown
8:30 PM 75.2 °F - 57.2 °F 53% 29.95 in 6.2 mi South 18.4 mph - N/A   Unknown
9:30 PM 75.2 °F - 60.8 °F 61% 29.95 in 6.2 mi South 16.1 mph - N/A   Unknown
10:30 PM 73.4 °F - 60.8 °F 65% 29.98 in 6.2 mi South 12.7 mph - N/A   Unknown
11:30 PM 71.6 °F - 62.6 °F 73% 29.98 in 6.2 mi SSW 11.5 mph - N/A   Unknown